contact:dominique.lefevre@mio.osupytheas.fr, maurice.libes@osupytheas.fr, didier.mallarino@osupytheas.fr
Project:EMSO http://www.emso-fr.org/EMSO-France
Depth: 2436.0 m
Title:EMSO Ligure Ouest : Data MII capteur MICROCAT
DateTime_Computer,Latitude,Longitude,Temperature,Conductivity,Pressure,DateTime_Instrument
DateTime_Computer,Latitude,Longitude,degC,S m-1,dbar,DateTime_Instrument
2022-10-25T00:02:34Z,42.805,6.029,13.3021,4.60089,2470.474,2022-10-25T02:04:30Z
2022-10-25T00:05:37Z,42.805,6.029,13.3021,4.60088,2470.497,2022-10-25T02:07:33Z
2022-10-25T00:08:40Z,42.805,6.029,13.3021,4.60074,2470.45,2022-10-25T02:10:36Z
2022-10-25T00:11:43Z,42.805,6.029,13.3021,4.60084,2470.497,2022-10-25T02:13:39Z
2022-10-25T00:14:46Z,42.805,6.029,13.3014,4.60075,2470.483,2022-10-25T02:16:42Z
2022-10-25T00:17:49Z,42.805,6.029,13.3019,4.60082,2470.474,2022-10-25T02:19:45Z
2022-10-25T00:20:52Z,42.805,6.029,13.3019,4.60089,2470.46,2022-10-25T02:22:48Z
2022-10-25T00:23:55Z,42.805,6.029,13.3018,4.60072,2470.474,2022-10-25T02:25:51Z
2022-10-25T00:26:58Z,42.805,6.029,13.3028,4.60081,2470.46,2022-10-25T02:28:54Z
2022-10-25T00:30:01Z,42.805,6.029,13.3022,4.60088,2470.46,2022-10-25T02:31:57Z
2022-10-25T00:33:04Z,42.805,6.029,13.3023,4.60077,2470.497,2022-10-25T02:35:01Z
2022-10-25T00:36:08Z,42.805,6.029,13.3023,4.60086,2470.483,2022-10-25T02:38:04Z
2022-10-25T00:39:11Z,42.805,6.029,13.3030,4.60080,2470.46,2022-10-25T02:41:07Z
2022-10-25T00:42:14Z,42.805,6.029,13.3021,4.60098,2470.46,2022-10-25T02:44:10Z
2022-10-25T00:45:17Z,42.805,6.029,13.3027,4.60079,2470.497,2022-10-25T02:47:13Z
2022-10-25T00:48:20Z,42.805,6.029,13.3031,4.60084,2470.46,2022-10-25T02:50:16Z
2022-10-25T00:51:23Z,42.805,6.029,13.3016,4.60081,2470.437,2022-10-25T02:53:19Z
2022-10-25T00:54:26Z,42.805,6.029,13.3017,4.60082,2470.474,2022-10-25T02:56:22Z
2022-10-25T00:57:29Z,42.805,6.029,13.3018,4.60092,2470.437,2022-10-25T02:59:25Z
2022-10-25T01:00:32Z,42.805,6.029,13.3022,4.60089,2470.474,2022-10-25T03:02:28Z
2022-10-25T01:03:35Z,42.805,6.029,13.3033,4.60087,2470.46,2022-10-25T03:05:31Z
2022-10-25T01:06:38Z,42.805,6.029,13.3026,4.60088,2470.46,2022-10-25T03:08:34Z
2022-10-25T01:09:41Z,42.805,6.029,13.3022,4.60089,2470.437,2022-10-25T03:11:38Z
2022-10-25T01:12:44Z,42.805,6.029,13.3025,4.60105,2470.46,2022-10-25T03:14:41Z
2022-10-25T01:15:48Z,42.805,6.029,13.3034,4.60107,2470.483,2022-10-25T03:17:44Z
2022-10-25T01:18:51Z,42.805,6.029,13.3024,4.60101,2470.437,2022-10-25T03:20:47Z
2022-10-25T01:21:54Z,42.805,6.029,13.3020,4.60098,2470.483,2022-10-25T03:23:50Z
2022-10-25T01:24:57Z,42.805,6.029,13.3022,4.60097,2470.474,2022-10-25T03:26:53Z
2022-10-25T01:28:00Z,42.805,6.029,13.3024,4.60081,2470.46,2022-10-25T03:29:56Z
2022-10-25T01:31:03Z,42.805,6.029,13.3025,4.60097,2470.46,2022-10-25T03:32:59Z
2022-10-25T01:34:06Z,42.805,6.029,13.3028,4.60103,2470.437,2022-10-25T03:36:02Z
2022-10-25T01:37:09Z,42.805,6.029,13.3014,4.60081,2470.483,2022-10-25T03:39:05Z
2022-10-25T01:40:12Z,42.805,6.029,13.3022,4.60081,2470.483,2022-10-25T03:42:08Z
2022-10-25T01:43:15Z,42.805,6.029,13.3019,4.60090,2470.437,2022-10-25T03:45:11Z
2022-10-25T01:46:18Z,42.805,6.029,13.3020,4.60087,2470.483,2022-10-25T03:48:15Z
2022-10-25T01:49:21Z,42.805,6.029,13.3020,4.60084,2470.474,2022-10-25T03:51:18Z
2022-10-25T01:52:25Z,42.805,6.029,13.3020,4.60078,2470.474,2022-10-25T03:54:21Z
2022-10-25T01:55:28Z,42.805,6.029,13.3019,4.60074,2470.46,2022-10-25T03:57:24Z
2022-10-25T01:58:31Z,42.805,6.029,13.3027,4.60094,2470.46,2022-10-25T04:00:27Z
2022-10-25T02:01:34Z,42.805,6.029,13.3019,4.60089,2470.474,2022-10-25T04:03:30Z
2022-10-25T02:04:37Z,42.805,6.029,13.3021,4.60091,2470.46,2022-10-25T04:06:33Z
2022-10-25T02:07:40Z,42.805,6.029,13.3023,4.60091,2470.483,2022-10-25T04:09:36Z
2022-10-25T02:10:43Z,42.805,6.029,13.3012,4.60082,2470.483,2022-10-25T04:12:39Z
2022-10-25T02:13:46Z,42.805,6.029,13.3022,4.60092,2470.46,2022-10-25T04:15:42Z
2022-10-25T02:16:49Z,42.805,6.029,13.3020,4.60081,2470.46,2022-10-25T04:18:45Z
2022-10-25T02:19:52Z,42.805,6.029,13.3023,4.60087,2470.474,2022-10-25T04:21:48Z
2022-10-25T02:22:55Z,42.805,6.029,13.3022,4.60087,2470.483,2022-10-25T04:24:51Z
2022-10-25T02:25:58Z,42.805,6.029,13.3027,4.60087,2470.483,2022-10-25T04:27:54Z
2022-10-25T02:29:01Z,42.805,6.029,13.3022,4.60085,2470.483,2022-10-25T04:30:58Z
2022-10-25T02:32:05Z,42.805,6.029,13.3025,4.60085,2470.507,2022-10-25T04:34:01Z
2022-10-25T02:35:08Z,42.805,6.029,13.3028,4.60087,2470.497,2022-10-25T04:37:04Z
2022-10-25T02:38:11Z,42.805,6.029,13.3024,4.60093,2470.497,2022-10-25T04:40:07Z
2022-10-25T02:41:14Z,42.805,6.029,13.3027,4.60086,2470.474,2022-10-25T04:43:10Z
2022-10-25T02:44:17Z,42.805,6.029,13.3026,4.60104,2470.483,2022-10-25T04:46:13Z
2022-10-25T02:47:20Z,42.805,6.029,13.3021,4.60090,2470.483,2022-10-25T04:49:16Z
2022-10-25T02:50:23Z,42.805,6.029,13.3028,4.60097,2470.46,2022-10-25T04:52:19Z
2022-10-25T02:53:26Z,42.805,6.029,13.3021,4.60104,2470.497,2022-10-25T04:55:22Z
2022-10-25T02:56:29Z,42.805,6.029,13.3019,4.60091,2470.497,2022-10-25T04:58:25Z
2022-10-25T02:59:32Z,42.805,6.029,13.3026,4.60094,2470.497,2022-10-25T05:01:28Z
2022-10-25T03:02:35Z,42.805,6.029,13.3019,4.60086,2470.52,2022-10-25T05:04:31Z
2022-10-25T03:05:38Z,42.805,6.029,13.3024,4.60093,2470.52,2022-10-25T05:07:35Z
2022-10-25T03:08:41Z,42.805,6.029,13.3024,4.60089,2470.53,2022-10-25T05:10:38Z
2022-10-25T03:11:44Z,42.805,6.029,13.3026,4.60089,2470.497,2022-10-25T05:13:41Z
2022-10-25T03:14:48Z,42.805,6.029,13.3028,4.60095,2470.53,2022-10-25T05:16:44Z
2022-10-25T03:17:51Z,42.805,6.029,13.3026,4.60104,2470.53,2022-10-25T05:19:47Z
2022-10-25T03:20:54Z,42.805,6.029,13.3022,4.60091,2470.53,2022-10-25T05:22:50Z
2022-10-25T03:23:57Z,42.805,6.029,13.3024,4.60092,2470.53,2022-10-25T05:25:53Z
2022-10-25T03:27:00Z,42.805,6.029,13.3023,4.60106,2470.544,2022-10-25T05:28:56Z
2022-10-25T03:30:03Z,42.805,6.029,13.3022,4.60095,2470.567,2022-10-25T05:31:59Z
2022-10-25T03:33:06Z,42.805,6.029,13.3018,4.60096,2470.544,2022-10-25T05:35:02Z
2022-10-25T03:36:09Z,42.805,6.029,13.3020,4.60102,2470.53,2022-10-25T05:38:05Z
2022-10-25T03:39:12Z,42.805,6.029,13.3025,4.60071,2470.553,2022-10-25T05:41:08Z
2022-10-25T03:42:15Z,42.805,6.029,13.3021,4.60103,2470.544,2022-10-25T05:44:11Z
2022-10-25T03:45:18Z,42.805,6.029,13.3031,4.60102,2470.591,2022-10-25T05:47:15Z
2022-10-25T03:48:21Z,42.805,6.029,13.3022,4.60101,2470.53,2022-10-25T05:50:18Z
2022-10-25T03:51:25Z,42.805,6.029,13.3019,4.60099,2470.567,2022-10-25T05:53:21Z
2022-10-25T03:54:28Z,42.805,6.029,13.3022,4.60103,2470.553,2022-10-25T05:56:24Z
2022-10-25T03:57:31Z,42.805,6.029,13.3020,4.60084,2470.591,2022-10-25T05:59:27Z
2022-10-25T04:00:34Z,42.805,6.029,13.3022,4.60088,2470.591,2022-10-25T06:02:30Z
2022-10-25T04:03:37Z,42.805,6.029,13.3020,4.60088,2470.577,2022-10-25T06:05:33Z
2022-10-25T04:06:40Z,42.805,6.029,13.3020,4.60093,2470.577,2022-10-25T06:08:36Z
2022-10-25T04:09:43Z,42.805,6.029,13.3019,4.60095,2470.591,2022-10-25T06:11:39Z
2022-10-25T04:12:46Z,42.805,6.029,13.3022,4.60096,2470.6,2022-10-25T06:14:42Z
2022-10-25T04:15:49Z,42.805,6.029,13.3029,4.60099,2470.577,2022-10-25T06:17:45Z
2022-10-25T04:18:52Z,42.805,6.029,13.3021,4.60080,2470.591,2022-10-25T06:20:48Z
2022-10-25T04:21:55Z,42.805,6.029,13.3023,4.60087,2470.6,2022-10-25T06:23:51Z
2022-10-25T04:24:58Z,42.805,6.029,13.3025,4.60089,2470.6,2022-10-25T06:26:55Z
2022-10-25T04:28:01Z,42.805,6.029,13.3021,4.60094,2470.61,2022-10-25T06:29:58Z
2022-10-25T04:31:05Z,42.805,6.029,13.3021,4.60095,2470.591,2022-10-25T06:33:01Z
2022-10-25T04:34:08Z,42.805,6.029,13.3023,4.60092,2470.624,2022-10-25T06:36:04Z
2022-10-25T04:37:11Z,42.805,6.029,13.3021,4.60101,2470.6,2022-10-25T06:39:07Z
2022-10-25T04:40:14Z,42.805,6.029,13.3021,4.60094,2470.624,2022-10-25T06:42:10Z
2022-10-25T04:43:17Z,42.805,6.029,13.3018,4.60092,2470.624,2022-10-25T06:45:13Z
2022-10-25T04:46:20Z,42.805,6.029,13.3026,4.60097,2470.637,2022-10-25T06:48:16Z
2022-10-25T04:49:23Z,42.805,6.029,13.3021,4.60084,2470.614,2022-10-25T06:51:19Z
2022-10-25T04:52:26Z,42.805,6.029,13.3028,4.60087,2470.6,2022-10-25T06:54:22Z
2022-10-25T04:55:29Z,42.805,6.029,13.3021,4.60097,2470.646,2022-10-25T06:57:25Z
2022-10-25T04:58:32Z,42.805,6.029,13.3024,4.60084,2470.624,2022-10-25T07:00:28Z
2022-10-25T05:01:35Z,42.805,6.029,13.3026,4.60096,2470.637,2022-10-25T07:03:31Z
2022-10-25T05:04:38Z,42.805,6.029,13.3027,4.60097,2470.637,2022-10-25T07:06:35Z
2022-10-25T05:07:41Z,42.805,6.029,13.3032,4.60089,2470.646,2022-10-25T07:09:38Z
2022-10-25T05:10:45Z,42.805,6.029,13.3026,4.60102,2470.661,2022-10-25T07:12:41Z
2022-10-25T05:13:48Z,42.805,6.029,13.3029,4.60098,2470.624,2022-10-25T07:15:44Z
2022-10-25T05:16:51Z,42.805,6.029,13.3019,4.60115,2470.684,2022-10-25T07:18:47Z
2022-10-25T05:19:54Z,42.805,6.029,13.3033,4.60108,2470.661,2022-10-25T07:21:50Z
2022-10-25T05:22:57Z,42.805,6.029,13.3027,4.60105,2470.646,2022-10-25T07:24:53Z
2022-10-25T05:26:00Z,42.805,6.029,13.3026,4.60092,2470.67,2022-10-25T07:27:56Z
2022-10-25T05:29:03Z,42.805,6.029,13.3026,4.60103,2470.67,2022-10-25T07:30:59Z
2022-10-25T05:32:06Z,42.805,6.029,13.3027,4.60101,2470.661,2022-10-25T07:34:02Z
2022-10-25T05:35:09Z,42.805,6.029,13.3023,4.60079,2470.661,2022-10-25T07:37:05Z
2022-10-25T05:38:12Z,42.805,6.029,13.3023,4.60093,2470.661,2022-10-25T07:40:08Z
2022-10-25T05:41:15Z,42.805,6.029,13.3021,4.60093,2470.624,2022-10-25T07:43:11Z
2022-10-25T05:44:18Z,42.805,6.029,13.3024,4.60099,2470.693,2022-10-25T07:46:15Z
2022-10-25T05:47:21Z,42.805,6.029,13.3024,4.60101,2470.67,2022-10-25T07:49:18Z
2022-10-25T05:50:25Z,42.805,6.029,13.3036,4.60100,2470.67,2022-10-25T07:52:21Z
2022-10-25T05:53:28Z,42.805,6.029,13.3029,4.60094,2470.693,2022-10-25T07:55:24Z
2022-10-25T05:56:31Z,42.805,6.029,13.3031,4.60092,2470.693,2022-10-25T07:58:27Z
2022-10-25T05:59:34Z,42.805,6.029,13.3023,4.60097,2470.684,2022-10-25T08:01:30Z
2022-10-25T06:02:37Z,42.805,6.029,13.3029,4.60110,2470.67,2022-10-25T08:04:33Z
2022-10-25T06:05:40Z,42.805,6.029,13.3031,4.60103,2470.679,2022-10-25T08:07:36Z
2022-10-25T06:08:43Z,42.805,6.029,13.3025,4.60097,2470.717,2022-10-25T08:10:39Z
2022-10-25T06:11:46Z,42.805,6.029,13.3027,4.60098,2470.693,2022-10-25T08:13:42Z
2022-10-25T06:14:49Z,42.805,6.029,13.3025,4.60107,2470.661,2022-10-25T08:16:45Z
2022-10-25T06:17:52Z,42.805,6.029,13.3021,4.60087,2470.67,2022-10-25T08:19:48Z
2022-10-25T06:20:55Z,42.805,6.029,13.3022,4.60088,2470.693,2022-10-25T08:22:51Z
2022-10-25T06:23:58Z,42.805,6.029,13.3029,4.60088,2470.67,2022-10-25T08:25:55Z
2022-10-25T06:27:01Z,42.805,6.029,13.3030,4.60104,2470.693,2022-10-25T08:28:58Z
2022-10-25T06:30:05Z,42.805,6.029,13.3031,4.60110,2470.67,2022-10-25T08:32:01Z
2022-10-25T06:33:08Z,42.805,6.029,13.3025,4.60107,2470.717,2022-10-25T08:35:04Z
2022-10-25T06:36:11Z,42.805,6.029,13.3027,4.60104,2470.707,2022-10-25T08:38:07Z
2022-10-25T06:39:14Z,42.805,6.029,13.3037,4.60099,2470.684,2022-10-25T08:41:10Z
2022-10-25T06:42:17Z,42.805,6.029,13.3027,4.60090,2470.717,2022-10-25T08:44:13Z
2022-10-25T06:45:20Z,42.805,6.029,13.3027,4.60104,2470.684,2022-10-25T08:47:16Z
2022-10-25T06:48:23Z,42.805,6.029,13.3032,4.60115,2470.693,2022-10-25T08:50:19Z
2022-10-25T06:51:26Z,42.805,6.029,13.3019,4.60096,2470.717,2022-10-25T08:53:22Z
2022-10-25T06:54:29Z,42.805,6.029,13.3034,4.60109,2470.707,2022-10-25T08:56:25Z
2022-10-25T06:57:32Z,42.805,6.029,13.3025,4.60095,2470.693,2022-10-25T08:59:28Z
2022-10-25T07:00:35Z,42.805,6.029,13.3021,4.60087,2470.693,2022-10-25T09:02:31Z
2022-10-25T07:03:38Z,42.805,6.029,13.3032,4.60099,2470.717,2022-10-25T09:05:35Z
2022-10-25T07:06:41Z,42.805,6.029,13.3021,4.60099,2470.73,2022-10-25T09:08:38Z
2022-10-25T07:09:45Z,42.805,6.029,13.3018,4.60093,2470.717,2022-10-25T09:11:41Z
2022-10-25T07:12:48Z,42.805,6.029,13.3025,4.60088,2470.717,2022-10-25T09:14:44Z
2022-10-25T07:15:51Z,42.805,6.029,13.3023,4.60104,2470.73,2022-10-25T09:17:47Z
2022-10-25T07:18:54Z,42.805,6.029,13.3027,4.60122,2470.73,2022-10-25T09:20:50Z
2022-10-25T07:21:57Z,42.805,6.029,13.3021,4.60114,2470.707,2022-10-25T09:23:53Z
2022-10-25T07:25:00Z,42.805,6.029,13.3029,4.60084,2470.693,2022-10-25T09:26:56Z
2022-10-25T07:28:03Z,42.805,6.029,13.3021,4.60114,2470.693,2022-10-25T09:29:59Z
2022-10-25T07:31:06Z,42.805,6.029,13.3024,4.60114,2470.693,2022-10-25T09:33:02Z
2022-10-25T07:34:09Z,42.805,6.029,13.3023,4.60094,2470.707,2022-10-25T09:36:05Z
2022-10-25T07:37:12Z,42.805,6.029,13.3025,4.60098,2470.67,2022-10-25T09:39:08Z
2022-10-25T07:40:15Z,42.805,6.029,13.3020,4.60102,2470.707,2022-10-25T09:42:11Z
2022-10-25T07:43:18Z,42.805,6.029,13.3020,4.60081,2470.707,2022-10-25T09:45:15Z
2022-10-25T07:46:21Z,42.805,6.029,13.3021,4.60084,2470.73,2022-10-25T09:48:18Z
2022-10-25T07:49:25Z,42.805,6.029,13.3023,4.60089,2470.693,2022-10-25T09:51:21Z
2022-10-25T07:52:28Z,42.805,6.029,13.3022,4.60102,2470.707,2022-10-25T09:54:24Z
2022-10-25T07:55:31Z,42.805,6.029,13.3024,4.60094,2470.67,2022-10-25T09:57:27Z
2022-10-25T07:58:34Z,42.805,6.029,13.3021,4.60085,2470.717,2022-10-25T10:00:30Z
2022-10-25T08:01:37Z,42.805,6.029,13.3026,4.60086,2470.693,2022-10-25T10:03:33Z
2022-10-25T08:04:40Z,42.805,6.029,13.3024,4.60101,2470.717,2022-10-25T10:06:36Z
2022-10-25T08:07:43Z,42.805,6.029,13.3025,4.60094,2470.707,2022-10-25T10:09:39Z
2022-10-25T08:10:46Z,42.805,6.029,13.3021,4.60092,2470.684,2022-10-25T10:12:42Z
2022-10-25T08:13:49Z,42.805,6.029,13.3024,4.60110,2470.684,2022-10-25T10:15:45Z
2022-10-25T08:16:52Z,42.805,6.029,13.3024,4.60096,2470.67,2022-10-25T10:18:48Z
2022-10-25T08:19:55Z,42.805,6.029,13.3023,4.60100,2470.67,2022-10-25T10:21:52Z
2022-10-25T08:22:58Z,42.805,6.029,13.3025,4.60098,2470.693,2022-10-25T10:24:55Z
2022-10-25T08:26:02Z,42.805,6.029,13.3026,4.60081,2470.707,2022-10-25T10:27:58Z
2022-10-25T08:29:05Z,42.805,6.029,13.3020,4.60087,2470.693,2022-10-25T10:31:01Z
2022-10-25T08:32:08Z,42.805,6.029,13.3023,4.60099,2470.693,2022-10-25T10:34:04Z
2022-10-25T08:35:11Z,42.805,6.029,13.3026,4.60097,2470.679,2022-10-25T10:37:07Z
2022-10-25T08:38:14Z,42.805,6.029,13.3030,4.60106,2470.693,2022-10-25T10:40:10Z
2022-10-25T08:41:17Z,42.805,6.029,13.3026,4.60104,2470.67,2022-10-25T10:43:13Z
2022-10-25T08:44:20Z,42.805,6.029,13.3026,4.60097,2470.684,2022-10-25T10:46:16Z
2022-10-25T08:47:23Z,42.805,6.029,13.3023,4.60097,2470.684,2022-10-25T10:49:19Z
2022-10-25T08:50:26Z,42.805,6.029,13.3026,4.60089,2470.684,2022-10-25T10:52:22Z
2022-10-25T08:53:29Z,42.805,6.029,13.3026,4.60092,2470.67,2022-10-25T10:55:25Z
2022-10-25T08:56:32Z,42.805,6.029,13.3028,4.60078,2470.67,2022-10-25T10:58:29Z
2022-10-25T08:59:35Z,42.805,6.029,13.3021,4.60099,2470.67,2022-10-25T11:01:32Z
2022-10-25T09:02:39Z,42.805,6.029,13.3022,4.60088,2470.684,2022-10-25T11:04:35Z
2022-10-25T09:05:42Z,42.805,6.029,13.3037,4.60099,2470.661,2022-10-25T11:07:38Z
2022-10-25T09:08:45Z,42.805,6.029,13.3026,4.60093,2470.661,2022-10-25T11:10:41Z
2022-10-25T09:11:48Z,42.805,6.029,13.3024,4.60111,2470.684,2022-10-25T11:13:44Z
2022-10-25T09:14:51Z,42.805,6.029,13.3020,4.60095,2470.661,2022-10-25T11:16:47Z
2022-10-25T09:17:54Z,42.805,6.029,13.3029,4.60076,2470.67,2022-10-25T11:19:50Z
2022-10-25T09:20:57Z,42.805,6.029,13.3025,4.60087,2470.67,2022-10-25T11:22:53Z
2022-10-25T09:24:00Z,42.805,6.029,13.3027,4.60094,2470.646,2022-10-25T11:25:56Z
2022-10-25T09:27:03Z,42.805,6.029,13.3032,4.60089,2470.67,2022-10-25T11:28:59Z
2022-10-25T09:30:06Z,42.805,6.029,13.3025,4.60087,2470.684,2022-10-25T11:32:02Z
2022-10-25T09:33:09Z,42.805,6.029,13.3025,4.60094,2470.67,2022-10-25T11:35:06Z
2022-10-25T09:36:12Z,42.805,6.029,13.3031,4.60093,2470.646,2022-10-25T11:38:09Z
2022-10-25T09:39:15Z,42.805,6.029,13.3021,4.60087,2470.661,2022-10-25T11:41:12Z
2022-10-25T09:42:19Z,42.805,6.029,13.3031,4.60089,2470.624,2022-10-25T11:44:15Z
2022-10-25T09:45:22Z,42.805,6.029,13.3026,4.60099,2470.637,2022-10-25T11:47:18Z
2022-10-25T09:48:25Z,42.805,6.029,13.3035,4.60082,2470.637,2022-10-25T11:50:21Z
2022-10-25T09:51:28Z,42.805,6.029,13.3022,4.60094,2470.624,2022-10-25T11:53:24Z
2022-10-25T09:54:31Z,42.805,6.029,13.3028,4.60087,2470.624,2022-10-25T11:56:27Z
2022-10-25T09:57:34Z,42.805,6.029,13.3015,4.60092,2470.624,2022-10-25T11:59:30Z
2022-10-25T10:00:37Z,42.805,6.029,13.3034,4.60096,2470.661,2022-10-25T12:02:33Z
2022-10-25T10:03:40Z,42.805,6.029,13.3024,4.60069,2470.637,2022-10-25T12:05:36Z
2022-10-25T10:06:43Z,42.805,6.029,13.3021,4.60097,2470.624,2022-10-25T12:08:39Z
2022-10-25T10:09:46Z,42.805,6.029,13.3024,4.60094,2470.637,2022-10-25T12:11:43Z
2022-10-25T10:12:49Z,42.805,6.029,13.3023,4.60092,2470.661,2022-10-25T12:14:46Z
2022-10-25T10:15:53Z,42.805,6.029,13.3019,4.60107,2470.6,2022-10-25T12:17:49Z
2022-10-25T10:18:56Z,42.805,6.029,13.3037,4.60100,2470.646,2022-10-25T12:20:52Z
2022-10-25T10:21:59Z,42.805,6.029,13.3021,4.60079,2470.637,2022-10-25T12:23:55Z
2022-10-25T10:25:02Z,42.805,6.029,13.3019,4.60093,2470.6,2022-10-25T12:26:58Z
2022-10-25T10:28:05Z,42.805,6.029,13.3025,4.60092,2470.624,2022-10-25T12:30:01Z
2022-10-25T10:31:08Z,42.805,6.029,13.3019,4.60074,2470.6,2022-10-25T12:33:04Z
2022-10-25T10:34:11Z,42.805,6.029,13.3033,4.60101,2470.624,2022-10-25T12:36:07Z
2022-10-25T10:37:14Z,42.805,6.029,13.3020,4.60108,2470.624,2022-10-25T12:39:10Z
2022-10-25T10:40:17Z,42.805,6.029,13.3030,4.60081,2470.637,2022-10-25T12:42:13Z
2022-10-25T10:43:20Z,42.805,6.029,13.3035,4.60102,2470.577,2022-10-25T12:45:16Z
2022-10-25T10:46:23Z,42.805,6.029,13.3030,4.60073,2470.614,2022-10-25T12:48:20Z
2022-10-25T10:49:26Z,42.805,6.029,13.3033,4.60096,2470.624,2022-10-25T12:51:23Z
2022-10-25T10:52:30Z,42.805,6.029,13.3026,4.60102,2470.6,2022-10-25T12:54:26Z
2022-10-25T10:55:33Z,42.805,6.029,13.3023,4.60089,2470.577,2022-10-25T12:57:29Z
2022-10-25T10:58:36Z,42.805,6.029,13.3037,4.60079,2470.591,2022-10-25T13:00:32Z
2022-10-25T11:01:39Z,42.805,6.029,13.3021,4.60086,2470.614,2022-10-25T13:03:35Z
2022-10-25T11:04:42Z,42.805,6.029,13.3031,4.60084,2470.614,2022-10-25T13:06:38Z
2022-10-25T11:07:45Z,42.805,6.029,13.3027,4.60072,2470.6,2022-10-25T13:09:41Z
2022-10-25T11:10:48Z,42.805,6.029,13.3022,4.60078,2470.614,2022-10-25T13:12:44Z
2022-10-25T11:13:51Z,42.805,6.029,13.3026,4.60092,2470.624,2022-10-25T13:15:47Z
2022-10-25T11:16:54Z,42.805,6.029,13.3027,4.60070,2470.553,2022-10-25T13:18:50Z
2022-10-25T11:19:57Z,42.805,6.029,13.3020,4.60081,2470.577,2022-10-25T13:21:53Z
2022-10-25T11:23:00Z,42.805,6.029,13.3025,4.60087,2470.553,2022-10-25T13:24:57Z
2022-10-25T11:26:03Z,42.805,6.029,13.3026,4.60074,2470.544,2022-10-25T13:28:00Z
2022-10-25T11:29:07Z,42.805,6.029,13.3023,4.60069,2470.614,2022-10-25T13:31:03Z
2022-10-25T11:32:10Z,42.805,6.029,13.3029,4.60067,2470.577,2022-10-25T13:34:06Z
2022-10-25T11:35:13Z,42.805,6.029,13.3024,4.60091,2470.553,2022-10-25T13:37:09Z
2022-10-25T11:38:16Z,42.805,6.029,13.3019,4.60077,2470.567,2022-10-25T13:40:12Z
2022-10-25T11:41:19Z,42.805,6.029,13.3030,4.60084,2470.567,2022-10-25T13:43:15Z
2022-10-25T11:44:22Z,42.805,6.029,13.3028,4.60069,2470.544,2022-10-25T13:46:18Z
2022-10-25T11:47:25Z,42.805,6.029,13.3028,4.60069,2470.553,2022-10-25T13:49:21Z
2022-10-25T11:50:28Z,42.805,6.029,13.3030,4.60077,2470.567,2022-10-25T13:52:24Z
2022-10-25T11:53:31Z,42.805,6.029,13.3024,4.60086,2470.567,2022-10-25T13:55:27Z
2022-10-25T11:56:34Z,42.805,6.029,13.3031,4.60079,2470.567,2022-10-25T13:58:30Z
2022-10-25T11:59:37Z,42.805,6.029,13.3029,4.60092,2470.553,2022-10-25T14:01:34Z
2022-10-25T12:02:40Z,42.805,6.029,13.3017,4.60094,2470.567,2022-10-25T14:04:37Z
2022-10-25T12:05:44Z,42.805,6.029,13.3026,4.60081,2470.53,2022-10-25T14:07:40Z
2022-10-25T12:08:47Z,42.805,6.029,13.3029,4.60099,2470.567,2022-10-25T14:10:43Z
2022-10-25T12:11:50Z,42.805,6.029,13.3027,4.60078,2470.553,2022-10-25T14:13:46Z
2022-10-25T12:14:53Z,42.805,6.029,13.3021,4.60079,2470.577,2022-10-25T14:16:49Z
2022-10-25T12:17:56Z,42.805,6.029,13.3021,4.60073,2470.553,2022-10-25T14:19:52Z
2022-10-25T12:20:59Z,42.805,6.029,13.3024,4.60068,2470.553,2022-10-25T14:22:55Z
2022-10-25T12:24:02Z,42.805,6.029,13.3028,4.60080,2470.53,2022-10-25T14:25:58Z
2022-10-25T12:27:05Z,42.805,6.029,13.3029,4.60085,2470.544,2022-10-25T14:29:01Z
2022-10-25T12:30:08Z,42.805,6.029,13.3023,4.60087,2470.567,2022-10-25T14:32:04Z
2022-10-25T12:33:11Z,42.805,6.029,13.3021,4.60085,2470.577,2022-10-25T14:35:07Z
2022-10-25T12:36:14Z,42.805,6.029,13.3025,4.60074,2470.553,2022-10-25T14:38:11Z
2022-10-25T12:39:17Z,42.805,6.029,13.3028,4.60066,2470.553,2022-10-25T14:41:14Z
2022-10-25T12:42:21Z,42.805,6.029,13.3024,4.60075,2470.53,2022-10-25T14:44:17Z
2022-10-25T12:45:24Z,42.805,6.029,13.3024,4.60111,2470.53,2022-10-25T14:47:20Z
2022-10-25T12:48:27Z,42.805,6.029,13.3024,4.60070,2470.53,2022-10-25T14:50:23Z
2022-10-25T12:51:30Z,42.805,6.029,13.3026,4.60090,2470.53,2022-10-25T14:53:26Z
2022-10-25T12:54:33Z,42.805,6.029,13.3029,4.60074,2470.567,2022-10-25T14:56:29Z
2022-10-25T12:57:36Z,42.805,6.029,13.3018,4.60070,2470.567,2022-10-25T14:59:32Z
2022-10-25T13:00:39Z,42.805,6.029,13.3024,4.60074,2470.553,2022-10-25T15:02:35Z
2022-10-25T13:03:42Z,42.805,6.029,13.3021,4.60080,2470.53,2022-10-25T15:05:38Z
2022-10-25T13:06:45Z,42.805,6.029,13.3022,4.60102,2470.553,2022-10-25T15:08:41Z
2022-10-25T13:09:48Z,42.805,6.029,13.3017,4.60081,2470.53,2022-10-25T15:11:44Z
2022-10-25T13:12:51Z,42.805,6.029,13.3027,4.60092,2470.53,2022-10-25T15:14:48Z
2022-10-25T13:15:54Z,42.805,6.029,13.3022,4.60081,2470.53,2022-10-25T15:17:51Z
2022-10-25T13:18:57Z,42.805,6.029,13.3023,4.60067,2470.53,2022-10-25T15:20:54Z
2022-10-25T13:22:01Z,42.805,6.029,13.3030,4.60078,2470.507,2022-10-25T15:23:57Z
2022-10-25T13:25:04Z,42.805,6.029,13.3021,4.60085,2470.52,2022-10-25T15:27:00Z
2022-10-25T13:28:07Z,42.805,6.029,13.3021,4.60084,2470.53,2022-10-25T15:30:03Z
2022-10-25T13:31:10Z,42.805,6.029,13.3026,4.60087,2470.567,2022-10-25T15:33:06Z
2022-10-25T13:34:13Z,42.805,6.029,13.3029,4.60077,2470.483,2022-10-25T15:36:09Z
2022-10-25T13:37:16Z,42.805,6.029,13.3022,4.60075,2470.544,2022-10-25T15:39:12Z
2022-10-25T13:40:19Z,42.805,6.029,13.3019,4.60077,2470.553,2022-10-25T15:42:15Z
2022-10-25T13:43:22Z,42.805,6.029,13.3018,4.60067,2470.507,2022-10-25T15:45:18Z
2022-10-25T13:46:25Z,42.805,6.029,13.3018,4.60087,2470.53,2022-10-25T15:48:21Z
2022-10-25T13:49:28Z,42.805,6.029,13.3023,4.60090,2470.567,2022-10-25T15:51:24Z
2022-10-25T13:52:31Z,42.805,6.029,13.3025,4.60081,2470.553,2022-10-25T15:54:28Z
2022-10-25T13:55:34Z,42.805,6.029,13.3020,4.60075,2470.507,2022-10-25T15:57:31Z
2022-10-25T13:58:38Z,42.805,6.029,13.3026,4.60066,2470.53,2022-10-25T16:00:34Z
2022-10-25T14:01:41Z,42.805,6.029,13.3025,4.60064,2470.567,2022-10-25T16:03:37Z
2022-10-25T14:04:44Z,42.805,6.029,13.3018,4.60072,2470.591,2022-10-25T16:06:40Z
2022-10-25T14:07:47Z,42.805,6.029,13.3028,4.60086,2470.577,2022-10-25T16:09:43Z
2022-10-25T14:10:50Z,42.805,6.029,13.3018,4.60056,2470.567,2022-10-25T16:12:46Z
2022-10-25T14:13:53Z,42.805,6.029,13.3026,4.60073,2470.53,2022-10-25T16:15:49Z
2022-10-25T14:16:56Z,42.805,6.029,13.3021,4.60061,2470.553,2022-10-25T16:18:52Z
2022-10-25T14:19:59Z,42.805,6.029,13.3024,4.60069,2470.507,2022-10-25T16:21:55Z
2022-10-25T14:23:02Z,42.805,6.029,13.3021,4.60087,2470.53,2022-10-25T16:24:58Z
2022-10-25T14:26:05Z,42.805,6.029,13.3019,4.60064,2470.553,2022-10-25T16:28:01Z
2022-10-25T14:29:08Z,42.805,6.029,13.3024,4.60073,2470.553,2022-10-25T16:31:05Z
2022-10-25T14:32:11Z,42.805,6.029,13.3026,4.60092,2470.53,2022-10-25T16:34:08Z
2022-10-25T14:35:15Z,42.805,6.029,13.3021,4.60077,2470.53,2022-10-25T16:37:11Z
2022-10-25T14:38:18Z,42.805,6.029,13.3022,4.60079,2470.53,2022-10-25T16:40:14Z
2022-10-25T14:41:21Z,42.805,6.029,13.3019,4.60066,2470.567,2022-10-25T16:43:17Z
2022-10-25T14:44:24Z,42.805,6.029,13.3019,4.60081,2470.516,2022-10-25T16:46:20Z
2022-10-25T14:47:27Z,42.805,6.029,13.3019,4.60073,2470.53,2022-10-25T16:49:23Z
2022-10-25T14:50:30Z,42.805,6.029,13.3025,4.60085,2470.553,2022-10-25T16:52:26Z
2022-10-25T14:53:33Z,42.805,6.029,13.3018,4.60079,2470.567,2022-10-25T16:55:29Z
2022-10-25T14:56:36Z,42.805,6.029,13.3019,4.60066,2470.553,2022-10-25T16:58:32Z
2022-10-25T14:59:39Z,42.805,6.029,13.3023,4.60087,2470.577,2022-10-25T17:01:35Z
2022-10-25T15:02:42Z,42.805,6.029,13.3024,4.60074,2470.553,2022-10-25T17:04:38Z